Погода в Предяле

Румыния     45°30′02″N   25°34′26″E
темп.,
°C
ветер,
м/с
пор.,
м/с
влажн.,
%
обл.,
%
осадки,
мм/ч
давл.,
гПа
погр.,
м
14 апреля, ср
ср1400:00+6ююв1284100 0.6 1013292
03:00+5ссв1298100 3.4 1012428
06:00+4ссв1294100 2.7 1012260
09:00+3з1198100 7.1 1012307
12:00+2ссз1199100 7.6 1012159
15:000с23100100 12.7 1013151
18:00−1с249998 1.3 1014215
21:00−2с3499100 2.2 1016155
15 апреля, чт
чт1500:00−2с3499100 1.5 1016150
03:00−3с34100100 2.0 1017217
06:00−4с349894 0.3 1018323
09:00−4с349498 0.4 1019452
12:00−2с349298 0.2 1019657
15:00−1с339199 0.4 1019762
18:00−1с349596 0.3 1019468
21:00−2с34100100 0.6 1020257
16 апреля, пт
пт1600:00−3с239996 0.1 1020178
03:00−3с239994 0.2 1020194
06:00−4с129996 0.1 1020206
09:00−2с239180 0.3 1020557
12:000с238397 0.2 1020977
15:00+2с227990 0.3 10201013
18:00+1с228665 0.1 1020581
21:00−1с119345 0.1 102250
17 апреля, сб
сб1700:00−5ю22955 0.0 102414
03:00−5ю229360 0.0 102315
06:00−3ю229397 0.0 102225
09:00+2ю2481100 0.0 1019449
12:00+5ю3472100 0.0 10181178
15:00+5ююв3475100 0.1 10171043
18:00+4ююв2390100 0.2 1017400
21:00+2ююв2399100 0.8 1017365
18 апреля, вс
вс1800:00+2ююв2399100 0.9 1017513
03:00+1юв2398100 1.2 1017277
06:000ююв2498100 0.3 1017182
09:00+1ююв349397 0.5 1017232
12:00+2ююв3491100 0.4 1018273
15:00+2ююв2494100 0.6 1018272
18:00+2ююв2397100 0.3 1018256
21:00+2ююв2498100 1.3 1019233